Location: *
(32.3758°S, 63.1185°E)
Time: 16:52:11
(UTC+00:00)

H-2A R/B - Pass Details

Date: 02 June 2023
Orbit: 733 x 834 km, 98.2° (Epoch: 23 September)

Event Time Altitude Azimuth Distance (km) Brightness Sun altitude
Rises 13:06:38 0° 170° (S) 3,191 4.9 -4.0°
Reaches altitude 10° 13:08:55 10° 171° (S) 2,264 4.1 -4.5°
Maximum altitude 13:13:53 78° 256° (WSW) 768 2.2 -5.4°
Drops below altitude 10° 13:18:51 10° 342° (NNW) 2,267 5.1 -6.4°
Sets 13:21:09 0° 343° (NNW) 3,196 5.8 -6.8°
